Location: Unspecified
(0.0000°N, 0.0000°E)
Time: 00:23:55
(UTC+02:00)

Cosmos 1933 - Visible Passes

Search period start: 23 October 2014 00:00
Search period end: 01 November 2014 23:00
Orbit: 556 x 571 km, 82.5° (Epoch: 22 October)

Date Brightness Start Highest point End Pass type
(mag) Time Alt. Az. Time Alt. Az. Time Alt. Az.
23 Oct 3.6 20:35:39 10° SSE 20:39:32 46° E 20:43:25 10° NNE visible
24 Oct 3.3 20:35:31 10° S 20:39:32 63° E 20:43:31 10° NNE visible
25 Oct 3.2 20:35:27 10° S 20:39:30 85° E 20:43:33 10° N visible
26 Oct 3.6 19:35:27 10° S 19:39:29 72° W 19:43:30 10° N visible
27 Oct 4.2 19:35:30 10° SSW 19:39:27 53° W 19:43:23 10° N visible
28 Oct 4.8 19:35:37 10° SSW 19:39:25 39° W 19:43:12 10° NNW visible
29 Oct 5.4 19:35:48 10° SSW 19:39:22 30° W 19:42:55 10° NNW visible
30 Oct 6.0 19:36:05 10° SW 19:39:19 23° W 19:42:33 10° NNW visible
31 Oct 6.7 06:01:08 10° ENE 06:02:52 12° E 06:04:36 10° ESE visible
31 Oct 6.4 19:36:30 10° SW 19:39:16 18° W 19:42:02 10° NW visible
01 Nov 6.5 06:00:14 10° NE 06:02:49 16° E 06:05:23 10° SE visible
01 Nov 6.6 19:37:08 10° WSW 19:39:12 14° W 19:41:16 10° NW visible
